Back to catalog

STARLINK-2735

AliveCommunicationsVLEO
NORAD 48667·PAYLOAD·🇺🇸 United States

Launched May 26, 2021 from Cape Canaveral Space Force Station

Loading…

Next Passes (next 24 hours)

TLE

FreshSource: CelesTrak SupGP

Epoch: Sep 14, 2026, 12:14 UTC

1 48667C 21044AF  26257.51020833  .00011835  00000+0  38067-3 0  2577
2 48667  53.1593 316.6907 0001357  73.6922  80.2039 15.31687623    11

Track STARLINK-2735 in real time with AllMySat

Download on the App Store